IRIDIUM 147 (43480 NORAD) Tracking and Keplerian Element Data

This shows tracking and keplerian element data for the satellite.

Feedback or suggestion? Click here.




ElementValue
Catalog43480
NameIRIDIUM 147
Epoch Orbit416
Epoch Day171.62129182
Epoch Year2018
RAAN227.9824
Inclination86.3989
Eccentricity0.0002041
Argument of Perigee93.5658
Mean Anonmoly266.5772
Mean Motion14.3421578
Decay Rate4.2E-07
L11 43480U 18047E 18171.62129182 .00000042 00000-0 80271-5 0 9997
L22 43480 86.3989 227.9824 0002041 93.5658 266.5772 14.34215780 4162

Live tracking and technical data element details for IRIDIUM 147 (NORAD 43480). IRIDIUM 147 can be tracked NOW for your location showing map with azimuth and elevation plus other details from your city location.

Track the satellite on the map from your city or location and see movement details for azimuth, elevation, latitude, longitude, range, height, and movement on the map or in text.







IsCatalogInMostPopularTable: catalog: 43480, numindb: 57
Update: records affected: 1



GetName: 43480 IRIDIUM 147

Hit Count: updated at: Tue, 20 Nov 2018 08:00:04 GMT